CST,Max TemperatureF,Mean TemperatureF,Min TemperatureF,Max Dew PointF,MeanDew PointF,Min DewpointF,Max Humidity, Mean Humidity, Min Humidity, Max Sea Level PressureIn, Mean Sea Level PressureIn, Min Sea Level PressureIn, Max VisibilityMiles, Mean VisibilityMiles, Min VisibilityMiles, Max Wind SpeedMPH, Mean Wind SpeedMPH, Max Gust SpeedMPH,PrecipitationIn, CloudCover, Events, WindDirDegrees
2012-11-1,86,64,45,54,49,42,90,62,30,30.05,29.98,29.93,10,10,6,8,2,,0.00,0,,181
2012-11-2,86,70,55,57,53,48,86,59,27,30.01,29.95,29.91,10,10,10,17,6,22,0.00,0,,191
2012-11-3,82,68,57,65,60,50,100,76,54,30.10,30.05,29.96,10,8,0,13,5,18,0.02,4,Fog-Rain-Thunderstorm,178
2012-11-4,75,64,53,55,49,42,87,61,44,30.14,30.09,30.03,10,10,10,7,4,,0.00,1,,31
2012-11-5,75,62,50,58,48,31,100,74,27,30.10,30.06,29.99,10,5,0,16,3,23,0.00,3,Fog,344
2012-11-6,70,57,44,43,39,37,80,57,31,30.17,30.11,30.06,10,10,10,8,3,,0.00,0,,344
2012-11-7,75,57,39,42,37,30,89,51,21,30.20,30.13,30.09,10,10,10,7,2,,0.00,0,,60
2012-11-8,78,65,52,57,48,36,73,53,43,30.15,30.07,30.00,10,10,10,20,9,24,0.00,1,,153
2012-11-9,82,71,60,61,58,55,90,67,42,30.07,30.01,29.94,10,10,10,28,14,32,0.00,2,,173
2012-11-10,80,71,62,61,58,55,94,70,45,30.02,29.95,29.87,10,10,10,22,14,33,0.00,3,,168
2012-11-11,77,62,46,68,57,38,88,74,56,30.25,29.95,29.81,10,10,3,23,13,38,0.04,7,Rain-Thunderstorm,212
2012-11-12,57,45,32,35,25,17,82,51,20,30.51,30.45,30.29,10,10,10,13,8,21,0.00,0,,15
2012-11-13,55,42,30,34,25,20,82,50,25,30.54,30.45,30.37,10,10,10,12,3,,0.00,1,,81
2012-11-14,61,48,35,32,28,25,78,48,26,30.45,30.37,30.31,10,10,10,7,3,,0.00,1,,72
2012-11-15,63,48,32,34,29,26,82,56,27,30.36,30.31,30.25,10,10,10,8,3,,0.00,0,,70
2012-11-16,64,49,34,36,30,28,85,57,26,30.43,30.37,30.33,10,10,8,9,4,,0.00,0,,38
2012-11-17,66,48,30,34,28,24,82,53,20,30.44,30.35,30.30,10,10,10,8,2,,0.00,0,,93
2012-11-18,69,53,37,36,34,32,82,49,25,30.33,30.27,30.21,10,10,10,14,5,,0.00,0,,151
2012-11-19,72,63,54,48,43,35,62,51,32,30.26,30.19,30.12,10,10,10,15,7,18,0.00,5,,169
2012-11-20,80,66,51,55,49,44,86,64,36,30.21,30.16,30.11,10,10,9,6,2,,0.00,0,,147
2012-11-21,81,63,45,53,45,33,93,59,19,30.28,30.20,30.13,10,9,6,10,2,,0.00,0,,127
2012-11-22,75,64,53,51,46,40,80,57,29,30.15,30.10,30.03,10,10,10,18,8,26,0.00,0,Rain,171
2012-11-23,68,58,46,53,32,19,84,42,17,30.43,30.32,30.12,10,10,10,26,10,36,0.00,3,,14
2012-11-24,60,46,33,28,21,16,59,39,18,30.43,30.30,30.13,10,10,10,8,4,,0.00,0,,137
2012-11-25,73,56,39,51,39,28,72,52,31,30.12,29.98,29.88,10,10,10,20,9,29,0.00,0,,177
2012-11-26,78,63,48,61,50,34,90,68,31,30.23,30.00,29.88,10,10,6,22,11,33,0.00,4,,246
2012-11-27,57,47,35,36,33,29,85,58,42,30.43,30.35,30.25,10,10,8,14,8,23,0.00,4,,343
2012-11-28,64,48,32,38,33,29,89,60,32,30.46,30.36,30.29,10,9,6,12,4,,0.00,0,,146
2012-11-29,66,52,39,48,39,33,82,62,38,30.28,30.21,30.13,10,10,10,14,7,18,0.00,1,,162
2012-11-30,71,62,53,61,56,49,97,85,64,30.19,30.12,30.04,10,6,0,15,9,23,0.00,5,Fog,167